Time,TemperatureF,DewpointF,PressureIn,WindDirection,WindDirectionDegrees,WindSpeedMPH,WindSpeedGustMPH,Humidity,HourlyPrecipIn,Conditions,Clouds,dailyrainin,SolarRadiationWatts/m^2,SoftwareType,DateUTC
2013-09-02 00:02:00,65.7,59.0,30.04,WSW,245,4.0,7.0,79,0.00,,,0.00,0.0,meteohub,2013-09-02 07:02:00,
2013-09-02 00:07:00,65.7,58.6,30.04,SW,236,3.0,7.0,78,0.00,,,0.00,0.0,meteohub,2013-09-02 07:07:00,
2013-09-02 00:12:00,65.8,58.8,30.04,West,275,3.0,7.0,78,0.00,,,0.00,0.0,meteohub,2013-09-02 07:12:00,
2013-09-02 00:17:00,65.8,59.2,30.04,West,271,4.0,7.0,79,0.00,,,0.00,0.0,meteohub,2013-09-02 07:17:00,
2013-09-02 00:22:00,65.7,59.0,30.04,WSW,253,4.0,7.0,79,0.00,,,0.00,0.0,meteohub,2013-09-02 07:22:00,
2013-09-02 00:27:00,65.7,59.4,30.04,WSW,237,3.0,7.0,80,0.00,,,0.00,0.0,meteohub,2013-09-02 07:27:00,
2013-09-02 00:32:00,65.7,59.4,30.04,SW,234,2.0,7.0,80,0.00,,,0.00,0.0,meteohub,2013-09-02 07:32:00,
2013-09-02 00:37:00,65.5,59.2,30.04,SW,215,5.0,8.0,80,0.00,,,0.00,0.0,meteohub,2013-09-02 07:37:00,
2013-09-02 00:42:00,65.5,59.2,30.04,WSW,242,0.0,8.0,80,0.00,,,0.00,0.0,meteohub,2013-09-02 07:42:00,
2013-09-02 00:47:00,65.5,59.2,30.04,WSW,258,1.0,8.0,80,0.00,,,0.00,0.0,meteohub,2013-09-02 07:47:00,
2013-09-02 00:52:00,65.7,59.4,30.04,SW,229,2.0,7.0,80,0.00,,,0.00,0.0,meteohub,2013-09-02 07:52:00,
2013-09-02 00:57:00,65.5,59.2,30.04,WSW,253,3.0,7.0,80,0.00,,,0.00,0.0,meteohub,2013-09-02 07:57:00,
2013-09-02 01:02:00,65.5,59.2,30.04,WSW,239,2.0,7.0,80,0.00,,,0.00,0.0,meteohub,2013-09-02 08:02:00,
2013-09-02 01:07:00,65.5,59.2,30.04,WSW,237,1.0,6.0,80,0.00,,,0.00,0.0,meteohub,2013-09-02 08:07:00,
2013-09-02 01:12:00,65.5,59.2,30.04,West,260,0.0,6.0,80,0.00,,,0.00,0.0,meteohub,2013-09-02 08:12:00,
2013-09-02 01:17:00,65.5,59.2,30.04,SW,234,5.0,6.0,80,0.00,,,0.00,0.0,meteohub,2013-09-02 08:17:00,
2013-09-02 01:22:00,65.5,59.2,30.04,WSW,251,4.0,6.0,80,0.00,,,0.00,0.0,meteohub,2013-09-02 08:22:00,
2013-09-02 01:27:00,65.5,59.2,30.03,SW,225,2.0,6.0,80,0.00,,,0.00,0.0,meteohub,2013-09-02 08:27:00,
2013-09-02 01:32:00,65.5,59.2,30.03,WSW,238,2.0,6.0,80,0.00,,,0.00,0.0,meteohub,2013-09-02 08:32:00,
2013-09-02 01:37:00,65.5,58.8,30.03,WSW,243,0.0,6.0,79,0.00,,,0.00,0.0,meteohub,2013-09-02 08:37:00,
2013-09-02 01:42:00,65.7,59.0,30.03,WSW,257,2.0,6.0,79,0.00,,,0.00,0.0,meteohub,2013-09-02 08:42:00,
2013-09-02 01:47:00,65.7,58.6,30.03,WSW,246,3.0,7.0,78,0.00,,,0.00,0.0,meteohub,2013-09-02 08:47:00,
2013-09-02 01:52:00,65.7,59.0,30.03,SW,225,1.0,7.0,79,0.00,,,0.00,0.0,meteohub,2013-09-02 08:52:00,
2013-09-02 01:57:00,65.7,58.6,30.03,WSW,248,2.0,7.0,78,0.00,,,0.00,0.0,meteohub,2013-09-02 08:57:00,
2013-09-02 02:02:00,65.7,59.0,30.03,SSW,213,4.0,6.0,79,0.00,,,0.00,0.0,meteohub,2013-09-02 09:02:00,
2013-09-02 02:07:00,65.7,59.0,30.03,WSW,252,3.0,8.0,79,0.00,,,0.00,0.0,meteohub,2013-09-02 09:07:00,
2013-09-02 02:12:00,65.7,59.4,30.03,SSW,212,1.0,8.0,80,0.00,,,0.00,0.0,meteohub,2013-09-02 09:12:00,
2013-09-02 02:17:00,65.5,59.2,30.03,SW,228,4.0,7.0,80,0.00,,,0.00,0.0,meteohub,2013-09-02 09:17:00,
2013-09-02 02:22:00,65.5,58.8,30.03,SW,229,1.0,6.0,79,0.00,,,0.00,0.0,meteohub,2013-09-02 09:22:00,
2013-09-02 02:27:00,65.5,58.8,30.03,West,267,3.0,5.0,79,0.00,,,0.00,0.0,meteohub,2013-09-02 09:27:00,
2013-09-02 02:32:00,65.5,58.8,30.03,WSW,248,0.0,5.0,79,0.00,,,0.00,0.0,meteohub,2013-09-02 09:32:00,
2013-09-02 02:37:00,65.5,59.2,30.03,West,262,3.0,5.0,80,0.00,,,0.00,0.0,meteohub,2013-09-02 09:37:00,
2013-09-02 02:42:00,65.5,59.2,30.03,West,266,3.0,5.0,80,0.00,,,0.00,0.0,meteohub,2013-09-02 09:42:00,
2013-09-02 02:47:00,65.5,59.2,30.03,SSW,207,0.0,5.0,80,0.00,,,0.00,0.0,meteohub,2013-09-02 09:47:00,
2013-09-02 02:52:00,65.3,59.0,30.02,SW,234,2.0,6.0,80,0.00,,,0.00,0.0,meteohub,2013-09-02 09:52:00,
2013-09-02 02:57:00,65.3,59.0,30.02,WSW,251,0.0,7.0,80,0.00,,,0.00,0.0,meteohub,2013-09-02 09:57:00,
2013-09-02 03:02:00,65.3,59.0,30.02,WSW,241,4.0,7.0,80,0.00,,,0.00,0.0,meteohub,2013-09-02 10:02:00,
2013-09-02 03:07:00,65.5,59.2,30.02,WSW,248,0.0,5.0,80,0.00,,,0.00,0.0,meteohub,2013-09-02 10:07:00,
2013-09-02 03:12:00,65.3,59.0,30.02,WSW,244,2.0,5.0,80,0.00,,,0.00,0.0,meteohub,2013-09-02 10:12:00,
2013-09-02 03:17:00,65.3,59.0,30.02,SSW,212,3.0,5.0,80,0.00,,,0.00,0.0,meteohub,2013-09-02 10:17:00,
2013-09-02 03:22:00,65.3,59.0,30.02,WSW,254,2.0,5.0,80,0.00,,,0.00,0.0,meteohub,2013-09-02 10:22:00,
2013-09-02 03:27:00,65.3,59.0,30.02,West,269,0.0,5.0,80,0.00,,,0.00,0.0,meteohub,2013-09-02 10:27:00,
2013-09-02 03:32:00,65.5,59.2,30.02,WSW,258,2.0,5.0,80,0.00,,,0.00,0.0,meteohub,2013-09-02 10:32:00,
2013-09-02 03:37:00,65.5,58.8,30.02,West,261,0.0,5.0,79,0.00,,,0.00,0.0,meteohub,2013-09-02 10:37:00,
2013-09-02 03:42:00,65.5,58.8,30.02,SW,232,3.0,4.0,79,0.00,,,0.00,0.0,meteohub,2013-09-02 10:42:00,
2013-09-02 03:47:00,65.5,58.8,30.02,WSW,237,2.0,4.0,79,0.00,,,0.00,0.0,meteohub,2013-09-02 10:47:00,
2013-09-02 03:52:00,65.5,58.8,30.02,WSW,239,3.0,5.0,79,0.00,,,0.00,0.0,meteohub,2013-09-02 10:52:00,
2013-09-02 03:57:00,65.5,58.8,30.02,WSW,242,3.0,5.0,79,0.00,,,0.00,0.0,meteohub,2013-09-02 10:57:00,
2013-09-02 04:02:00,65.5,58.8,30.02,SW,230,1.0,5.0,79,0.00,,,0.00,0.0,meteohub,2013-09-02 11:02:00,
2013-09-02 04:07:00,65.5,59.2,30.02,SSW,207,1.0,5.0,80,0.00,,,0.00,0.0,meteohub,2013-09-02 11:07:00,
2013-09-02 04:12:00,65.5,59.2,30.02,WSW,249,2.0,7.0,80,0.00,,,0.00,0.0,meteohub,2013-09-02 11:12:00,
2013-09-02 04:17:00,65.5,58.8,30.02,SW,234,1.0,7.0,79,0.00,,,0.00,0.0,meteohub,2013-09-02 11:17:00,
2013-09-02 04:22:00,65.5,59.2,30.02,WSW,244,1.0,7.0,80,0.00,,,0.00,0.0,meteohub,2013-09-02 11:22:00,
2013-09-02 04:27:00,65.5,59.2,30.02,WSW,249,1.0,6.0,80,0.00,,,0.00,0.0,meteohub,2013-09-02 11:27:00,
2013-09-02 04:32:00,65.5,59.2,30.02,WSW,254,2.0,6.0,80,0.00,,,0.00,0.0,meteohub,2013-09-02 11:32:00,
2013-09-02 04:37:00,65.3,59.0,30.02,WSW,245,3.0,6.0,80,0.00,,,0.00,0.0,meteohub,2013-09-02 11:37:00,
2013-09-02 04:42:00,65.1,58.8,30.02,SW,222,3.0,6.0,80,0.00,,,0.00,0.0,meteohub,2013-09-02 11:42:00,
2013-09-02 04:47:00,65.1,59.2,30.02,SW,231,4.0,6.0,81,0.00,,,0.00,0.0,meteohub,2013-09-02 11:47:00,
2013-09-02 04:52:00,64.9,59.0,30.02,West,277,5.0,8.0,81,0.00,,,0.00,0.0,meteohub,2013-09-02 11:52:00,
2013-09-02 04:57:00,64.8,59.2,30.02,WSW,251,2.0,8.0,82,0.00,,,0.00,0.0,meteohub,2013-09-02 11:57:00,
2013-09-02 05:02:00,64.4,58.8,30.02,WSW,248,2.0,8.0,82,0.00,,,0.00,0.0,meteohub,2013-09-02 12:02:00,
2013-09-02 05:07:00,64.2,59.0,30.02,SW,225,3.0,7.0,83,0.00,,,0.00,0.0,meteohub,2013-09-02 12:07:00,
2013-09-02 05:12:00,64.2,59.0,30.02,WSW,256,1.0,6.0,83,0.00,,,0.00,0.0,meteohub,2013-09-02 12:12:00,
2013-09-02 05:17:00,64.0,59.2,30.02,WSW,244,2.0,6.0,84,0.00,,,0.00,0.0,meteohub,2013-09-02 12:17:00,
2013-09-02 05:22:00,63.9,59.0,30.03,SW,234,5.0,6.0,84,0.00,,,0.00,0.0,meteohub,2013-09-02 12:22:00,
2013-09-02 05:27:00,63.9,59.2,30.03,WSW,242,1.0,7.0,85,0.00,,,0.00,0.0,meteohub,2013-09-02 12:27:00,
2013-09-02 05:32:00,63.7,59.0,30.03,SSW,209,1.0,7.0,85,0.00,,,0.00,0.0,meteohub,2013-09-02 12:32:00,
2013-09-02 05:37:00,63.7,59.0,30.03,WSW,247,0.0,7.0,85,0.00,,,0.00,0.0,meteohub,2013-09-02 12:37:00,
2013-09-02 05:42:00,63.9,59.2,30.03,West,264,0.0,4.0,85,0.00,,,0.00,0.0,meteohub,2013-09-02 12:42:00,
2013-09-02 05:47:00,63.9,59.2,30.03,SW,228,4.0,4.0,85,0.00,,,0.00,0.0,meteohub,2013-09-02 12:47:00,
2013-09-02 05:52:00,63.9,59.2,30.03,West,262,4.0,4.0,85,0.00,,,0.00,0.0,meteohub,2013-09-02 12:52:00,
2013-09-02 05:57:00,63.9,59.2,30.04,SW,225,0.0,5.0,85,0.00,,,0.00,0.0,meteohub,2013-09-02 12:57:00,
2013-09-02 06:02:00,63.9,59.2,30.03,SW,225,0.0,5.0,85,0.00,,,0.00,0.0,meteohub,2013-09-02 13:02:00,
2013-09-02 06:07:00,63.9,59.2,30.04,SW,226,0.0,5.0,85,0.00,,,0.00,0.0,meteohub,2013-09-02 13:07:00,
2013-09-02 06:12:00,63.9,59.2,30.04,West,267,0.0,5.0,85,0.00,,,0.00,0.0,meteohub,2013-09-02 13:12:00,
2013-09-02 06:17:00,63.9,59.2,30.04,WSW,238,2.0,5.0,85,0.00,,,0.00,0.0,meteohub,2013-09-02 13:17:00,
2013-09-02 06:22:00,63.7,59.0,30.04,WSW,248,0.0,7.0,85,0.00,,,0.00,0.0,meteohub,2013-09-02 13:22:00,
2013-09-02 06:27:00,63.7,59.4,30.04,SW,229,1.0,7.0,86,0.00,,,0.00,0.0,meteohub,2013-09-02 13:27:00,
2013-09-02 06:32:00,63.7,59.4,30.04,WNW,299,1.0,7.0,86,0.00,,,0.00,0.0,meteohub,2013-09-02 13:32:00,
2013-09-02 06:37:00,63.7,59.4,30.04,SSW,196,2.0,6.0,86,0.00,,,0.00,0.0,meteohub,2013-09-02 13:37:00,
2013-09-02 06:42:00,63.5,59.2,30.04,WSW,244,0.0,6.0,86,0.00,,,0.00,0.0,meteohub,2013-09-02 13:42:00,
2013-09-02 06:47:00,63.5,59.2,30.04,NW,307,0.0,6.0,86,0.00,,,0.00,0.0,meteohub,2013-09-02 13:47:00,
2013-09-02 06:52:00,63.5,59.2,30.04,WSW,247,3.0,7.0,86,0.00,,,0.00,0.0,meteohub,2013-09-02 13:52:00,
2013-09-02 06:57:00,63.5,59.5,30.04,WSW,256,0.0,7.0,87,0.00,,,0.00,0.0,meteohub,2013-09-02 13:57:00,
2013-09-02 07:02:00,63.5,59.5,30.05,WSW,257,4.0,7.0,87,0.00,,,0.00,7.0,meteohub,2013-09-02 14:02:00,
2013-09-02 07:07:00,63.5,59.5,30.04,West,261,0.0,7.0,87,0.00,,,0.00,11.0,meteohub,2013-09-02 14:07:00,
2013-09-02 07:12:00,63.5,59.5,30.05,WSW,247,1.0,6.0,87,0.00,,,0.00,12.0,meteohub,2013-09-02 14:12:00,
2013-09-02 07:17:00,63.5,59.5,30.05,SW,235,3.0,6.0,87,0.00,,,0.00,21.0,meteohub,2013-09-02 14:17:00,
2013-09-02 07:22:00,63.7,59.7,30.05,SW,221,2.0,6.0,87,0.00,,,0.00,23.0,meteohub,2013-09-02 14:22:00,
2013-09-02 07:27:00,63.7,59.7,30.05,SW,232,1.0,6.0,87,0.00,,,0.00,33.0,meteohub,2013-09-02 14:27:00,
2013-09-02 07:32:00,63.7,59.7,30.05,WSW,240,0.0,6.0,87,0.00,,,0.00,39.0,meteohub,2013-09-02 14:32:00,
2013-09-02 07:37:00,63.9,59.9,30.05,WSW,248,2.0,5.0,87,0.00,,,0.00,37.0,meteohub,2013-09-02 14:37:00,
2013-09-02 07:42:00,63.9,59.9,30.05,SW,229,1.0,5.0,87,0.00,,,0.00,54.0,meteohub,2013-09-02 14:42:00,
2013-09-02 07:47:00,64.0,59.7,30.06,SW,232,2.0,6.0,86,0.00,,,0.00,60.0,meteohub,2013-09-02 14:47:00,
2013-09-02 07:52:00,64.0,59.7,30.06,SW,224,2.0,6.0,86,0.00,,,0.00,67.0,meteohub,2013-09-02 14:52:00,
2013-09-02 07:57:00,64.2,59.9,30.06,WSW,238,4.0,6.0,86,0.00,,,0.00,70.0,meteohub,2013-09-02 14:57:00,
2013-09-02 08:02:00,64.4,60.1,30.06,WSW,245,1.0,6.0,86,0.00,,,0.00,84.0,meteohub,2013-09-02 15:02:00,
2013-09-02 08:07:00,64.6,60.3,30.06,West,260,0.0,7.0,86,0.00,,,0.00,91.0,meteohub,2013-09-02 15:07:00,
2013-09-02 08:12:00,64.8,60.4,30.06,West,263,2.0,7.0,86,0.00,,,0.00,81.0,meteohub,2013-09-02 15:12:00,
2013-09-02 08:17:00,64.9,60.3,30.06,SW,232,0.0,7.0,85,0.00,,,0.00,77.0,meteohub,2013-09-02 15:17:00,
2013-09-02 08:22:00,65.1,60.1,30.06,WSW,239,1.0,6.0,84,0.00,,,0.00,70.0,meteohub,2013-09-02 15:22:00,
2013-09-02 08:27:00,65.5,60.4,30.06,WSW,258,2.0,4.0,84,0.00,,,0.00,79.0,meteohub,2013-09-02 15:27:00,
2013-09-02 08:32:00,65.5,60.4,30.06,SW,232,5.0,6.0,84,0.00,,,0.00,90.0,meteohub,2013-09-02 15:32:00,
2013-09-02 08:37:00,65.7,60.4,30.06,WSW,244,3.0,6.0,83,0.00,,,0.00,100.0,meteohub,2013-09-02 15:37:00,
2013-09-02 08:42:00,65.7,60.4,30.06,WSW,242,0.0,5.0,83,0.00,,,0.00,113.0,meteohub,2013-09-02 15:42:00,
2013-09-02 08:47:00,65.8,60.6,30.06,West,273,0.0,5.0,83,0.00,,,0.00,121.0,meteohub,2013-09-02 15:47:00,
2013-09-02 08:52:00,66.0,60.4,30.06,SW,229,2.0,5.0,82,0.00,,,0.00,127.0,meteohub,2013-09-02 15:52:00,
2013-09-02 08:57:00,66.4,60.8,30.06,West,276,4.0,6.0,82,0.00,,,0.00,125.0,meteohub,2013-09-02 15:57:00,
2013-09-02 09:02:00,66.6,61.0,30.07,SSW,213,1.0,7.0,82,0.00,,,0.00,120.0,meteohub,2013-09-02 16:02:00,
2013-09-02 09:07:00,66.7,61.0,30.07,WNW,284,2.0,7.0,82,0.00,,,0.00,123.0,meteohub,2013-09-02 16:07:00,
2013-09-02 09:12:00,66.9,61.0,30.07,WSW,244,4.0,5.0,81,0.00,,,0.00,134.0,meteohub,2013-09-02 16:12:00,
2013-09-02 09:17:00,67.1,61.2,30.06,SW,221,1.0,7.0,81,0.00,,,0.00,141.0,meteohub,2013-09-02 16:17:00,
2013-09-02 09:22:00,67.3,61.0,30.06,SW,220,3.0,7.0,80,0.00,,,0.00,160.0,meteohub,2013-09-02 16:22:00,
2013-09-02 09:27:00,67.6,61.2,30.06,West,261,4.0,7.0,80,0.00,,,0.00,171.0,meteohub,2013-09-02 16:27:00,
2013-09-02 09:32:00,67.8,61.0,30.07,West,272,5.0,8.0,79,0.00,,,0.00,163.0,meteohub,2013-09-02 16:32:00,
2013-09-02 09:37:00,67.8,61.0,30.07,West,265,4.0,8.0,79,0.00,,,0.00,148.0,meteohub,2013-09-02 16:37:00,
2013-09-02 09:42:00,67.8,61.0,30.07,West,265,3.0,8.0,79,0.00,,,0.00,118.0,meteohub,2013-09-02 16:42:00,
2013-09-02 09:47:00,67.8,61.0,30.07,WSW,254,4.0,9.0,79,0.00,,,0.00,104.0,meteohub,2013-09-02 16:47:00,
2013-09-02 09:52:00,67.6,61.0,30.07,SSW,209,5.0,9.0,79,0.00,,,0.00,93.0,meteohub,2013-09-02 16:52:00,
2013-09-02 09:57:00,67.6,61.2,30.07,WSW,242,1.0,8.0,80,0.00,,,0.00,98.0,meteohub,2013-09-02 16:57:00,
2013-09-02 10:02:00,67.8,61.3,30.07,North,355,1.0,8.0,80,0.00,,,0.00,104.0,meteohub,2013-09-02 17:02:00,
2013-09-02 10:07:00,67.6,61.2,30.07,WSW,248,4.0,6.0,80,0.00,,,0.00,135.0,meteohub,2013-09-02 17:07:00,
2013-09-02 10:12:00,67.8,61.3,30.07,SW,226,1.0,8.0,80,0.00,,,0.00,155.0,meteohub,2013-09-02 17:12:00,
2013-09-02 10:17:00,68.2,61.7,30.07,West,274,3.0,8.0,80,0.00,,,0.00,211.0,meteohub,2013-09-02 17:17:00,
2013-09-02 10:22:00,68.7,61.9,30.07,WNW,293,1.0,7.0,79,0.00,,,0.00,211.0,meteohub,2013-09-02 17:22:00,
2013-09-02 10:27:00,69.3,61.7,30.07,SW,236,3.0,7.0,77,0.00,,,0.00,213.0,meteohub,2013-09-02 17:27:00,
2013-09-02 10:32:00,69.6,61.7,30.07,WNW,284,4.0,7.0,76,0.00,,,0.00,176.0,meteohub,2013-09-02 17:32:00,
2013-09-02 10:37:00,70.3,61.7,30.06,SW,229,8.0,10.0,74,0.00,,,0.00,109.0,meteohub,2013-09-02 17:37:00,
2013-09-02 10:42:00,70.5,61.9,30.06,SW,217,4.0,11.0,74,0.00,,,0.00,105.0,meteohub,2013-09-02 17:42:00,
2013-09-02 10:47:00,71.1,61.9,30.06,West,263,3.0,11.0,73,0.00,,,0.00,118.0,meteohub,2013-09-02 17:47:00,
2013-09-02 10:52:00,71.4,61.9,30.07,West,271,5.0,11.0,72,0.00,,,0.00,90.0,meteohub,2013-09-02 17:52:00,
2013-09-02 10:57:00,71.8,61.9,30.07,SW,236,7.0,9.0,71,0.00,,,0.00,72.0,meteohub,2013-09-02 17:57:00,
2013-09-02 11:02:00,72.0,61.7,30.06,WSW,245,6.0,9.0,70,0.00,,,0.00,102.0,meteohub,2013-09-02 18:02:00,
2013-09-02 11:07:00,72.3,61.5,30.07,WSW,240,0.0,11.0,69,0.00,,,0.00,186.0,meteohub,2013-09-02 18:07:00,
2013-09-02 11:12:00,73.2,61.5,30.07,WSW,238,2.0,11.0,67,0.00,,,0.00,301.0,meteohub,2013-09-02 18:12:00,
2013-09-02 11:17:00,73.6,61.5,30.07,WNW,302,4.0,10.0,66,0.00,,,0.00,287.0,meteohub,2013-09-02 18:17:00,
2013-09-02 11:22:00,73.8,62.1,30.07,West,279,3.0,10.0,67,0.00,,,0.00,281.0,meteohub,2013-09-02 18:22:00,
2013-09-02 11:27:00,73.8,61.7,30.07,WSW,244,3.0,8.0,66,0.00,,,0.00,244.0,meteohub,2013-09-02 18:27:00,
2013-09-02 11:32:00,73.8,61.7,30.07,WSW,252,4.0,8.0,66,0.00,,,0.00,279.0,meteohub,2013-09-02 18:32:00,
2013-09-02 11:37:00,73.8,62.1,30.07,WNW,300,3.0,8.0,67,0.00,,,0.00,295.0,meteohub,2013-09-02 18:37:00,
2013-09-02 11:42:00,73.8,62.1,30.06,WSW,250,4.0,8.0,67,0.00,,,0.00,265.0,meteohub,2013-09-02 18:42:00,
2013-09-02 11:47:00,74.3,62.2,30.06,WSW,254,2.0,8.0,66,0.00,,,0.00,631.0,meteohub,2013-09-02 18:47:00,
2013-09-02 11:52:00,74.5,62.4,30.06,SW,228,4.0,7.0,66,0.00,,,0.00,367.0,meteohub,2013-09-02 18:52:00,
2013-09-02 11:57:00,74.3,62.2,30.06,WSW,241,5.0,7.0,66,0.00,,,0.00,292.0,meteohub,2013-09-02 18:57:00,
2013-09-02 12:02:00,74.1,61.5,30.06,West,264,4.0,7.0,65,0.00,,,0.00,297.0,meteohub,2013-09-02 19:02:00,
2013-09-02 12:07:00,74.1,62.1,30.06,WNW,294,5.0,7.0,66,0.00,,,0.00,432.0,meteohub,2013-09-02 19:07:00,
2013-09-02 12:12:00,74.3,62.2,30.06,WSW,238,3.0,7.0,66,0.00,,,0.00,387.0,meteohub,2013-09-02 19:12:00,
2013-09-02 12:17:00,75.0,62.4,30.06,NW,308,4.0,8.0,65,0.00,,,0.00,366.0,meteohub,2013-09-02 19:17:00,
2013-09-02 12:22:00,76.3,62.2,30.06,WSW,252,3.0,8.0,62,0.00,,,0.00,759.0,meteohub,2013-09-02 19:22:00,
2013-09-02 12:27:00,76.6,62.6,30.06,WSW,241,1.0,8.0,62,0.00,,,0.00,817.0,meteohub,2013-09-02 19:27:00,
2013-09-02 12:32:00,77.7,62.8,30.05,WSW,249,7.0,7.0,60,0.00,,,0.00,701.0,meteohub,2013-09-02 19:32:00,
2013-09-02 12:37:00,77.9,62.4,30.05,SW,232,4.0,12.0,59,0.00,,,0.00,814.0,meteohub,2013-09-02 19:37:00,
2013-09-02 12:42:00,78.4,62.4,30.05,WSW,252,5.0,12.0,58,0.00,,,0.00,682.0,meteohub,2013-09-02 19:42:00,
2013-09-02 12:47:00,78.8,62.2,30.05,WSW,244,6.0,12.0,57,0.00,,,0.00,846.0,meteohub,2013-09-02 19:47:00,
2013-09-02 12:53:00,79.2,62.6,30.05,West,265,4.0,8.0,57,0.00,,,0.00,826.0,meteohub,2013-09-02 19:53:00,
2013-09-02 12:58:00,79.5,62.4,30.05,WSW,245,6.0,7.0,56,0.00,,,0.00,858.0,meteohub,2013-09-02 19:58:00,
2013-09-02 13:03:00,79.2,62.1,30.05,WSW,242,4.0,11.0,56,0.00,,,0.00,355.0,meteohub,2013-09-02 20:03:00,
2013-09-02 13:08:00,79.0,62.4,30.05,SW,233,10.0,11.0,57,0.00,,,0.00,932.0,meteohub,2013-09-02 20:08:00,
2013-09-02 13:13:00,79.0,61.9,30.05,WSW,254,4.0,10.0,56,0.00,,,0.00,313.0,meteohub,2013-09-02 20:13:00,
2013-09-02 13:18:00,79.0,61.9,30.04,WSW,248,8.0,12.0,56,0.00,,,0.00,786.0,meteohub,2013-09-02 20:18:00,
2013-09-02 13:23:00,79.0,61.9,30.04,WNW,282,5.0,12.0,56,0.00,,,0.00,330.0,meteohub,2013-09-02 20:23:00,
2013-09-02 13:28:00,78.4,61.5,30.04,SW,220,3.0,10.0,56,0.00,,,0.00,512.0,meteohub,2013-09-02 20:28:00,
2013-09-02 13:33:00,79.0,61.0,30.04,WSW,243,4.0,10.0,54,0.00,,,0.00,875.0,meteohub,2013-09-02 20:33:00,
2013-09-02 13:38:00,80.2,61.5,30.04,SW,232,6.0,10.0,53,0.00,,,0.00,867.0,meteohub,2013-09-02 20:38:00,
2013-09-02 13:43:00,80.4,61.2,30.04,SW,229,5.0,10.0,52,0.00,,,0.00,881.0,meteohub,2013-09-02 20:43:00,
2013-09-02 13:49:00,80.8,62.1,30.04,West,275,6.0,12.0,53,0.00,,,0.00,907.0,meteohub,2013-09-02 20:49:00,
2013-09-02 13:54:00,80.6,61.9,30.04,WSW,254,9.0,12.0,53,0.00,,,0.00,896.0,meteohub,2013-09-02 20:54:00,
2013-09-02 13:59:00,80.8,61.0,30.04,SW,232,5.0,12.0,51,0.00,,,0.00,909.0,meteohub,2013-09-02 20:59:00,
2013-09-02 14:05:00,80.1,60.8,30.04,SW,236,3.0,10.0,52,0.00,,,0.00,997.0,meteohub,2013-09-02 21:05:00,
2013-09-02 14:10:00,80.1,61.3,30.04,SW,227,3.0,10.0,53,0.00,,,0.00,1018.0,meteohub,2013-09-02 21:10:00,
2013-09-02 14:15:00,80.6,61.3,30.04,WSW,239,7.0,10.0,52,0.00,,,0.00,492.0,meteohub,2013-09-02 21:15:00,
2013-09-02 14:20:00,80.1,60.8,30.04,SW,233,7.0,10.0,52,0.00,,,0.00,250.0,meteohub,2013-09-02 21:20:00,
2013-09-02 14:25:00,79.5,60.8,30.04,SW,227,4.0,11.0,53,0.00,,,0.00,257.0,meteohub,2013-09-02 21:25:00,
2013-09-02 14:31:00,80.1,61.3,30.04,SW,232,3.0,11.0,53,0.00,,,0.00,854.0,meteohub,2013-09-02 21:31:00,
2013-09-02 14:36:00,80.4,61.7,30.03,SW,216,5.0,10.0,53,0.00,,,0.00,624.0,meteohub,2013-09-02 21:36:00,
2013-09-02 14:41:00,80.2,62.1,30.03,WSW,252,5.0,11.0,54,0.00,,,0.00,608.0,meteohub,2013-09-02 21:41:00,
2013-09-02 14:46:00,80.1,61.9,30.03,WSW,238,8.0,11.0,54,0.00,,,0.00,371.0,meteohub,2013-09-02 21:46:00,
2013-09-02 14:51:00,79.9,61.7,30.03,West,265,4.0,11.0,54,0.00,,,0.00,371.0,meteohub,2013-09-02 21:51:00,
2013-09-02 14:56:00,79.5,61.9,30.03,WSW,250,8.0,11.0,55,0.00,,,0.00,251.0,meteohub,2013-09-02 21:56:00,
2013-09-02 15:01:00,79.0,61.5,30.03,SSW,210,6.0,10.0,55,0.00,,,0.00,265.0,meteohub,2013-09-02 22:01:00,
2013-09-02 15:07:00,78.4,61.5,30.03,WSW,244,5.0,10.0,56,0.00,,,0.00,204.0,meteohub,2013-09-02 22:07:00,
2013-09-02 15:12:00,78.4,61.5,30.02,SW,219,7.0,11.0,56,0.00,,,0.00,214.0,meteohub,2013-09-02 22:12:00,
2013-09-02 15:17:00,78.6,61.5,30.02,West,261,3.0,11.0,56,0.00,,,0.00,438.0,meteohub,2013-09-02 22:17:00,
2013-09-02 15:22:00,79.2,62.1,30.02,WSW,248,7.0,11.0,56,0.00,,,0.00,554.0,meteohub,2013-09-02 22:22:00,
2013-09-02 15:27:00,79.3,61.7,30.02,WSW,241,4.0,11.0,55,0.00,,,0.00,376.0,meteohub,2013-09-02 22:27:00,
2013-09-02 15:32:00,78.6,61.5,30.02,WSW,245,5.0,11.0,56,0.00,,,0.00,355.0,meteohub,2013-09-02 22:32:00,
2013-09-02 15:37:00,78.6,61.5,30.02,SSW,211,4.0,11.0,56,0.00,,,0.00,930.0,meteohub,2013-09-02 22:37:00,
2013-09-02 15:38:00,79.0,61.9,30.02,West,280,2.0,11.0,56,0.00,,,0.00,360.0,meteohub,2013-09-02 22:38:00,
2013-09-02 15:47:00,79.0,61.9,30.02,SW,223,7.0,11.0,56,0.00,,,0.00,290.0,meteohub,2013-09-02 22:47:00,
2013-09-02 15:52:00,78.1,61.2,30.02,West,279,3.0,10.0,56,0.00,,,0.00,265.0,meteohub,2013-09-02 22:52:00,
2013-09-02 15:57:00,77.5,61.2,30.02,WSW,254,5.0,9.0,57,0.00,,,0.00,415.0,meteohub,2013-09-02 22:57:00,
2013-09-02 16:02:00,77.5,61.2,30.01,West,277,6.0,10.0,57,0.00,,,0.00,272.0,meteohub,2013-09-02 23:02:00,
2013-09-02 16:07:00,76.8,61.3,30.01,WSW,256,3.0,10.0,59,0.00,,,0.00,237.0,meteohub,2013-09-02 23:07:00,
2013-09-02 16:12:00,76.5,61.5,30.01,WSW,244,4.0,11.0,60,0.00,,,0.00,279.0,meteohub,2013-09-02 23:12:00,
2013-09-02 16:17:00,76.8,61.9,30.01,SW,221,3.0,11.0,60,0.00,,,0.00,371.0,meteohub,2013-09-02 23:17:00,
2013-09-02 16:22:00,77.4,61.9,30.01,WSW,245,5.0,10.0,59,0.00,,,0.00,802.0,meteohub,2013-09-02 23:22:00,
2013-09-02 16:27:00,77.5,61.5,30.01,SW,223,3.0,11.0,58,0.00,,,0.00,297.0,meteohub,2013-09-02 23:27:00,
2013-09-02 16:32:00,77.7,61.7,30.01,SW,235,8.0,11.0,58,0.00,,,0.00,735.0,meteohub,2013-09-02 23:32:00,
2013-09-02 16:38:00,78.1,61.5,30.01,WSW,238,7.0,11.0,57,0.00,,,0.00,717.0,meteohub,2013-09-02 23:38:00,
2013-09-02 16:43:00,78.1,61.5,30.01,West,274,5.0,11.0,57,0.00,,,0.00,371.0,meteohub,2013-09-02 23:43:00,
2013-09-02 16:48:00,77.5,61.2,30.01,SW,234,5.0,11.0,57,0.00,,,0.00,200.0,meteohub,2013-09-02 23:48:00,
2013-09-02 16:53:00,76.6,60.8,30.01,West,267,5.0,12.0,58,0.00,,,0.00,149.0,meteohub,2013-09-02 23:53:00,
2013-09-02 16:58:00,75.9,60.6,30.01,WSW,239,5.0,12.0,59,0.00,,,0.00,162.0,meteohub,2013-09-02 23:58:00,
2013-09-02 17:03:00,75.2,60.8,30.01,SW,232,3.0,11.0,61,0.00,,,0.00,197.0,meteohub,2013-09-03 00:03:00,
2013-09-02 17:08:00,75.0,60.6,30.01,SW,235,9.0,10.0,61,0.00,,,0.00,220.0,meteohub,2013-09-03 00:08:00,
2013-09-02 17:13:00,74.8,61.0,30.01,WSW,243,7.0,12.0,62,0.00,,,0.00,390.0,meteohub,2013-09-03 00:13:00,
2013-09-02 17:18:00,74.8,60.1,30.01,WSW,257,5.0,12.0,60,0.00,,,0.00,283.0,meteohub,2013-09-03 00:18:00,
2013-09-02 17:23:00,74.5,60.1,30.01,WSW,243,6.0,12.0,61,0.00,,,0.00,206.0,meteohub,2013-09-03 00:23:00,
2013-09-02 17:28:00,73.9,60.6,30.01,SW,225,6.0,10.0,63,0.00,,,0.00,174.0,meteohub,2013-09-03 00:28:00,
2013-09-02 17:33:00,73.6,60.6,30.01,West,264,3.0,10.0,64,0.00,,,0.00,144.0,meteohub,2013-09-03 00:33:00,
2013-09-02 17:39:00,73.2,60.3,30.01,West,271,5.0,11.0,64,0.00,,,0.00,118.0,meteohub,2013-09-03 00:39:00,
2013-09-02 17:44:00,72.9,60.4,30.01,WSW,241,6.0,12.0,65,0.00,,,0.00,104.0,meteohub,2013-09-03 00:44:00,
2013-09-02 17:49:00,72.3,60.3,30.01,WSW,253,7.0,12.0,66,0.00,,,0.00,83.0,meteohub,2013-09-03 00:49:00,
2013-09-02 17:54:00,71.8,60.3,30.01,SW,223,8.0,12.0,67,0.00,,,0.00,105.0,meteohub,2013-09-03 00:54:00,
2013-09-02 17:59:00,71.4,59.9,30.01,WSW,250,4.0,10.0,67,0.00,,,0.00,76.0,meteohub,2013-09-03 00:59:00,
2013-09-02 18:04:00,71.1,59.9,30.01,WSW,249,6.0,10.0,68,0.00,,,0.00,69.0,meteohub,2013-09-03 01:04:00,
2013-09-02 18:09:00,71.1,60.4,30.01,WSW,242,9.0,13.0,69,0.00,,,0.00,83.0,meteohub,2013-09-03 01:09:00,
2013-09-02 18:14:00,71.1,60.4,30.01,West,259,4.0,13.0,69,0.00,,,0.00,77.0,meteohub,2013-09-03 01:14:00,
2013-09-02 18:19:00,71.1,60.4,30.01,West,277,5.0,13.0,69,0.00,,,0.00,113.0,meteohub,2013-09-03 01:19:00,
2013-09-02 18:24:00,71.4,60.8,30.00,WSW,240,6.0,10.0,69,0.00,,,0.00,81.0,meteohub,2013-09-03 01:24:00,
2013-09-02 18:29:00,71.4,60.8,30.00,West,262,4.0,10.0,69,0.00,,,0.00,81.0,meteohub,2013-09-03 01:29:00,
2013-09-02 18:34:00,71.4,60.8,30.00,WSW,243,4.0,10.0,69,0.00,,,0.00,114.0,meteohub,2013-09-03 01:34:00,
2013-09-02 18:39:00,71.8,60.6,30.00,WSW,248,6.0,10.0,68,0.00,,,0.00,79.0,meteohub,2013-09-03 01:39:00,
2013-09-02 18:44:00,72.0,60.8,30.00,West,278,4.0,10.0,68,0.00,,,0.00,178.0,meteohub,2013-09-03 01:44:00,
2013-09-02 18:50:00,71.8,61.0,30.00,West,264,8.0,9.0,69,0.00,,,0.00,81.0,meteohub,2013-09-03 01:50:00,
2013-09-02 18:55:00,71.2,61.0,30.00,WSW,246,6.0,11.0,70,0.00,,,0.00,95.0,meteohub,2013-09-03 01:55:00,
2013-09-02 19:00:00,71.1,60.8,30.00,WSW,238,5.0,11.0,70,0.00,,,0.00,63.0,meteohub,2013-09-03 02:00:00,
2013-09-02 19:05:00,70.9,61.0,30.00,SW,236,7.0,10.0,71,0.00,,,0.00,76.0,meteohub,2013-09-03 02:05:00,
2013-09-02 19:10:00,70.9,61.0,30.00,SW,232,4.0,9.0,71,0.00,,,0.00,83.0,meteohub,2013-09-03 02:10:00,
2013-09-02 19:15:00,70.9,61.0,30.01,WSW,243,3.0,9.0,71,0.00,,,0.00,58.0,meteohub,2013-09-03 02:15:00,
2013-09-02 19:20:00,70.9,61.0,30.01,WSW,257,2.0,9.0,71,0.00,,,0.00,42.0,meteohub,2013-09-03 02:20:00,
2013-09-02 19:25:00,70.5,60.6,30.01,West,264,3.0,9.0,71,0.00,,,0.00,16.0,meteohub,2013-09-03 02:25:00,
2013-09-02 19:30:00,70.3,60.8,30.01,SW,236,0.0,6.0,72,0.00,,,0.00,12.0,meteohub,2013-09-03 02:30:00,
2013-09-02 19:35:00,70.0,60.6,30.01,WSW,257,1.0,8.0,72,0.00,,,0.00,9.0,meteohub,2013-09-03 02:35:00,
2013-09-02 19:40:00,69.4,60.4,30.01,WSW,249,4.0,8.0,73,0.00,,,0.00,5.0,meteohub,2013-09-03 02:40:00,
2013-09-02 19:45:00,69.3,60.3,30.01,SW,231,1.0,8.0,73,0.00,,,0.00,0.0,meteohub,2013-09-03 02:45:00,
2013-09-02 19:50:00,69.1,60.4,30.01,SSW,196,4.0,8.0,74,0.00,,,0.00,0.0,meteohub,2013-09-03 02:50:00,
2013-09-02 19:55:00,68.7,60.1,30.01,WSW,242,1.0,8.0,74,0.00,,,0.00,0.0,meteohub,2013-09-03 02:55:00,
2013-09-02 20:01:00,68.5,59.9,30.01,SW,223,0.0,8.0,74,0.00,,,0.00,0.0,meteohub,2013-09-03 03:01:00,
2013-09-02 20:06:00,68.4,60.1,30.01,SW,234,0.0,8.0,75,0.00,,,0.00,0.0,meteohub,2013-09-03 03:06:00,
2013-09-02 20:11:00,68.4,60.1,30.01,SW,235,3.0,5.0,75,0.00,,,0.00,0.0,meteohub,2013-09-03 03:11:00,
2013-09-02 20:16:00,68.2,59.9,30.02,SSW,203,3.0,5.0,75,0.00,,,0.00,0.0,meteohub,2013-09-03 03:16:00,
2013-09-02 20:21:00,68.0,60.1,30.02,SW,218,0.0,6.0,76,0.00,,,0.00,0.0,meteohub,2013-09-03 03:21:00,
2013-09-02 20:26:00,67.8,59.9,30.02,SW,236,2.0,6.0,76,0.00,,,0.00,0.0,meteohub,2013-09-03 03:26:00,
2013-09-02 20:31:00,67.8,60.3,30.03,SW,222,2.0,6.0,77,0.00,,,0.00,0.0,meteohub,2013-09-03 03:31:00,
2013-09-02 20:36:00,67.6,60.3,30.03,WSW,241,0.0,5.0,77,0.00,,,0.00,0.0,meteohub,2013-09-03 03:36:00,
2013-09-02 20:41:00,67.6,60.3,30.03,WSW,241,0.0,5.0,77,0.00,,,0.00,0.0,meteohub,2013-09-03 03:41:00,
2013-09-02 20:47:00,67.5,60.1,30.03,WSW,242,0.0,5.0,77,0.00,,,0.00,0.0,meteohub,2013-09-03 03:47:00,
2013-09-02 20:52:00,67.5,60.4,30.04,WSW,242,0.0,5.0,78,0.00,,,0.00,0.0,meteohub,2013-09-03 03:52:00,
2013-09-02 20:57:00,67.5,60.4,30.04,WSW,242,0.0,3.0,78,0.00,,,0.00,0.0,meteohub,2013-09-03 03:57:00,
2013-09-02 21:01:00,67.3,60.3,30.04,WSW,242,1.0,3.0,78,0.00,,,0.00,0.0,meteohub,2013-09-03 04:01:00,
2013-09-02 21:03:00,67.3,60.3,30.04,WSW,242,0.0,3.0,78,0.00,,,0.00,0.0,meteohub,2013-09-03 04:03:00,
2013-09-02 21:04:00,67.3,60.3,30.04,WSW,242,0.0,3.0,78,0.00,,,0.00,0.0,meteohub,2013-09-03 04:04:00,
2013-09-02 21:05:00,67.3,60.3,30.04,WSW,242,0.0,3.0,78,0.00,,,0.00,0.0,meteohub,2013-09-03 04:05:00,
2013-09-02 21:08:00,67.3,60.3,30.04,WSW,245,4.0,4.0,78,0.00,,,0.00,0.0,meteohub,2013-09-03 04:08:00,
2013-09-02 21:13:00,67.1,60.1,30.04,WSW,240,0.0,5.0,78,0.00,,,0.00,0.0,meteohub,2013-09-03 04:13:00,
2013-09-02 21:18:00,66.9,59.9,30.04,SW,231,2.0,5.0,78,0.00,,,0.00,0.0,meteohub,2013-09-03 04:18:00,
2013-09-02 21:24:00,66.7,60.1,30.04,WSW,239,1.0,5.0,79,0.00,,,0.00,0.0,meteohub,2013-09-03 04:24:00,
2013-09-02 21:29:00,66.6,59.9,30.04,WSW,239,0.0,5.0,79,0.00,,,0.00,0.0,meteohub,2013-09-03 04:29:00,
2013-09-02 21:34:00,66.6,59.9,30.05,WSW,240,0.0,3.0,79,0.00,,,0.00,0.0,meteohub,2013-09-03 04:34:00,
2013-09-02 21:39:00,66.4,60.1,30.04,WSW,240,3.0,3.0,80,0.00,,,0.00,0.0,meteohub,2013-09-03 04:39:00,
2013-09-02 21:44:00,66.2,59.9,30.05,WSW,240,1.0,2.0,80,0.00,,,0.00,0.0,meteohub,2013-09-03 04:44:00,
2013-09-02 21:49:00,65.8,59.5,30.05,WSW,252,0.0,3.0,80,0.00,,,0.00,0.0,meteohub,2013-09-03 04:49:00,
2013-09-02 21:54:00,65.7,59.7,30.05,WSW,252,1.0,4.0,81,0.00,,,0.00,0.0,meteohub,2013-09-03 04:54:00,
2013-09-02 21:59:00,65.5,59.5,30.05,West,267,2.0,4.0,81,0.00,,,0.00,0.0,meteohub,2013-09-03 04:59:00,
2013-09-02 22:04:00,65.3,59.4,30.04,WSW,250,0.0,4.0,81,0.00,,,0.00,0.0,meteohub,2013-09-03 05:04:00,
2013-09-02 22:09:00,65.1,59.2,30.04,WSW,241,0.0,3.0,81,0.00,,,0.00,0.0,meteohub,2013-09-03 05:09:00,
2013-09-02 22:14:00,64.9,59.4,30.04,WSW,256,1.0,3.0,82,0.00,,,0.00,0.0,meteohub,2013-09-03 05:14:00,
2013-09-02 22:19:00,64.8,59.2,30.05,WSW,256,3.0,3.0,82,0.00,,,0.00,0.0,meteohub,2013-09-03 05:19:00,
2013-09-02 22:24:00,64.8,59.2,30.04,WSW,256,1.0,3.0,82,0.00,,,0.00,0.0,meteohub,2013-09-03 05:24:00,
2013-09-02 22:29:00,64.6,59.0,30.04,WSW,246,1.0,3.0,82,0.00,,,0.00,0.0,meteohub,2013-09-03 05:29:00,
2013-09-02 22:35:00,64.6,59.0,30.04,WSW,239,2.0,3.0,82,0.00,,,0.00,0.0,meteohub,2013-09-03 05:35:00,
2013-09-02 22:40:00,64.2,58.6,30.04,West,265,1.0,4.0,82,0.00,,,0.00,0.0,meteohub,2013-09-03 05:40:00,
2013-09-02 22:45:00,64.2,58.6,30.04,WSW,245,3.0,4.0,82,0.00,,,0.00,0.0,meteohub,2013-09-03 05:45:00,
2013-09-02 22:50:00,64.0,58.5,30.04,WSW,237,1.0,6.0,82,0.00,,,0.00,0.0,meteohub,2013-09-03 05:50:00,
2013-09-02 22:55:00,64.0,58.5,30.04,WSW,243,4.0,6.0,82,0.00,,,0.00,0.0,meteohub,2013-09-03 05:55:00,
2013-09-02 23:00:00,63.9,58.3,30.04,WSW,248,2.0,7.0,82,0.00,,,0.00,0.0,meteohub,2013-09-03 06:00:00,
2013-09-02 23:05:00,63.9,57.9,30.04,SW,225,4.0,7.0,81,0.00,,,0.00,0.0,meteohub,2013-09-03 06:05:00,
2013-09-02 23:10:00,63.9,57.9,30.05,WSW,239,1.0,7.0,81,0.00,,,0.00,0.0,meteohub,2013-09-03 06:10:00,
2013-09-02 23:15:00,63.7,57.7,30.05,WSW,244,2.0,5.0,81,0.00,,,0.00,0.0,meteohub,2013-09-03 06:15:00,
2013-09-02 23:20:00,63.7,57.7,30.05,WSW,246,4.0,5.0,81,0.00,,,0.00,0.0,meteohub,2013-09-03 06:20:00,
2013-09-02 23:25:00,63.7,57.7,30.05,SW,215,4.0,5.0,81,0.00,,,0.00,0.0,meteohub,2013-09-03 06:25:00,
2013-09-02 23:30:00,63.7,58.1,30.05,West,261,3.0,5.0,82,0.00,,,0.00,0.0,meteohub,2013-09-03 06:30:00,
2013-09-02 23:35:00,63.7,58.1,30.05,SSW,198,1.0,6.0,82,0.00,,,0.00,0.0,meteohub,2013-09-03 06:35:00,
2013-09-02 23:40:00,63.7,58.1,30.05,WSW,244,2.0,6.0,82,0.00,,,0.00,0.0,meteohub,2013-09-03 06:40:00,
2013-09-02 23:45:00,63.5,57.9,30.05,West,281,5.0,6.0,82,0.00,,,0.00,0.0,meteohub,2013-09-03 06:45:00,
2013-09-02 23:50:00,63.3,57.7,30.06,WNW,288,3.0,7.0,82,0.00,,,0.00,0.0,meteohub,2013-09-03 06:50:00,
2013-09-02 23:56:00,63.1,57.6,30.06,West,275,1.0,7.0,82,0.00,,,0.00,0.0,meteohub,2013-09-03 06:56:00,